When you browse on this site, cookies collect data to enhance your experience and personalize the content and advertising you see.
Visit our Privacy Policy to learn more. By continuing to use the site, you agree to this use of cookies and data.

Hourly Weather Ben-Gurion

Today, 4 July, Saturday

Time Temperature Precipitation Wind Pressure Humidity
00:00 +23°C° 0 mm 0 mps 750 mmHg 76%
01:00 +25°C° 0 mm 1 mps 750 mmHg 76%
02:00 +23°C° 0 mm 0 mps 750 mmHg 76%
03:00 +25°C° 0 mm 1 mps 750 mmHg 76%
04:00 +24°C° 0 mm 1 mps 750 mmHg 76%
05:00 +24°C° 0 mm 1 mps 750 mmHg 77%
06:00 +26°C° 0 mm 1 mps 750 mmHg 70%
07:00 +28°C° 0 mm 2 mps 750 mmHg 63%
08:00 +30°C° 0 mm 2 mps 750 mmHg 56%
09:00 +31°C° 0 mm 3 mps 750 mmHg 52%
10:00 +33°C° 0 mm 4 mps 750 mmHg 48%
11:00 +34°C° 0 mm 5 mps 750 mmHg 44%
12:00 +34°C° 0 mm 5 mps 750 mmHg 44%
13:00 +34°C° 0 mm 5 mps 749 mmHg 44%
14:00 +35°C° 0 mm 6 mps 749 mmHg 44%
15:00 +34°C° 0 mm 5 mps 749 mmHg 47%
16:00 +33°C° 0 mm 5 mps 749 mmHg 49%
17:00 +32°C° 0 mm 5 mps 749 mmHg 52%
18:00 +30°C° 0 mm 3 mps 749 mmHg 60%
19:00 +28°C° 0 mm 2 mps 749 mmHg 68%
20:00 +27°C° 0 mm 1 mps 749 mmHg 77%
21:00 +26°C° 0 mm 1 mps 749 mmHg 77%
22:00 +26°C° 0 mm 1 mps 749 mmHg 76%
23:00 +23°C° 0 mm 0 mps 749 mmHg 76%

Tomorrow, 5 July, Sunday

Time Temperature Precipitation Wind Pressure Humidity
00:00 +25°C° 0 mm 1 mps 749 mmHg 77%
01:00 +25°C° 0 mm 1 mps 749 mmHg 77%
02:00 +25°C° 0 mm 1 mps 748 mmHg 77%
03:00 +25°C° 0 mm 2 mps 748 mmHg 79%
04:00 +24°C° 0 mm 2 mps 748 mmHg 81%
05:00 +24°C° 0 mm 2 mps 748 mmHg 83%
06:00 +26°C° 0 mm 3 mps 748 mmHg 76%
07:00 +28°C° 0 mm 3 mps 748 mmHg 69%
08:00 +29°C° 0 mm 4 mps 748 mmHg 62%
09:00 +32°C° 0 mm 4 mps 748 mmHg 57%
10:00 +33°C° 0 mm 5 mps 748 mmHg 51%
11:00 +34°C° 0 mm 6 mps 748 mmHg 46%
12:00 +34°C° 0 mm 6 mps 748 mmHg 46%
13:00 +34°C° 0 mm 6 mps 747 mmHg 46%
14:00 +34°C° 0 mm 6 mps 747 mmHg 46%
15:00 +33°C° 0 mm 5 mps 747 mmHg 49%
16:00 +33°C° 0 mm 5 mps 747 mmHg 51%
17:00 +32°C° 0 mm 4 mps 746 mmHg 53%
18:00 +30°C° 0 mm 3 mps 747 mmHg 61%
19:00 +28°C° 0 mm 3 mps 747 mmHg 69%
20:00 +27°C° 0 mm 2 mps 747 mmHg 77%
21:00 +27°C° 0 mm 2 mps 747 mmHg 79%
22:00 +26°C° 0 mm 2 mps 747 mmHg 81%
23:00 +26°C° 0 mm 3 mps 747 mmHg 83%

Day after tomorrow, 6 July, Monday

Time Temperature Precipitation Wind Pressure Humidity
00:00 +26°C° 0 mm 3 mps 747 mmHg 84%
01:00 +26°C° 0 mm 3 mps 746 mmHg 85%
02:00 +26°C° 0 mm 3 mps 746 mmHg 86%
03:00 +26°C° 0 mm 3 mps 746 mmHg 85%
04:00 +26°C° 0 mm 3 mps 746 mmHg 84%
05:00 +27°C° 0 mm 3 mps 746 mmHg 83%
06:00 +28°C° 0 mm 4 mps 746 mmHg 78%
07:00 +28°C° 0 mm 4 mps 746 mmHg 73%
08:00 +29°C° 0 mm 4 mps 746 mmHg 68%
09:00 +30°C° 0 mm 4 mps 746 mmHg 65%
10:00 +32°C° 0 mm 5 mps 746 mmHg 62%
11:00 +33°C° 0 mm 5 mps 746 mmHg 58%
12:00 +33°C° 0 mm 5 mps 746 mmHg 58%
13:00 +34°C° 0 mm 5 mps 746 mmHg 57%
14:00 +34°C° 0 mm 6 mps 745 mmHg 56%
15:00 +33°C° 0 mm 5 mps 745 mmHg 60%
16:00 +32°C° 0 mm 5 mps 745 mmHg 64%
17:00 +30°C° 0 mm 4 mps 745 mmHg 68%
18:00 +29°C° 0 mm 3 mps 746 mmHg 74%
19:00 +28°C° 0 mm 3 mps 746 mmHg 79%
20:00 +27°C° 0 mm 2 mps 747 mmHg 85%
21:00 +27°C° 0 mm 2 mps 747 mmHg 86%
22:00 +27°C° 0 mm 2 mps 747 mmHg 88%
23:00 +27°C° 0 mm 3 mps 747 mmHg 89%

7 July, Tuesday

Time Temperature Precipitation Wind Pressure Humidity
00:00 +27°C° 0 mm 3 mps 747 mmHg 88%
01:00 +27°C° 0 mm 3 mps 747 mmHg 87%
02:00 +27°C° 0 mm 3 mps 747 mmHg 86%
03:00 +27°C° 0 mm 3 mps 747 mmHg 84%
04:00 +27°C° 0 mm 3 mps 747 mmHg 82%
05:00 +27°C° 0 mm 3 mps 747 mmHg 80%
06:00 +28°C° 0 mm 3 mps 748 mmHg 75%
07:00 +29°C° 0 mm 3 mps 748 mmHg 70%
08:00 +30°C° 0 mm 3 mps 748 mmHg 65%
09:00 +32°C° 0 mm 4 mps 748 mmHg 61%
10:00 +33°C° 0 mm 5 mps 748 mmHg 58%
11:00 +34°C° 0 mm 6 mps 748 mmHg 55%
12:00 +34°C° 0 mm 6 mps 748 mmHg 54%
13:00 +34°C° 0 mm 6 mps 748 mmHg 54%
14:00 +34°C° 0 mm 6 mps 748 mmHg 53%
15:00 +33°C° 0 mm 6 mps 748 mmHg 55%
16:00 +32°C° 0 mm 5 mps 748 mmHg 57%
17:00 +32°C° 0 mm 5 mps 748 mmHg 60%
18:00 +30°C° 0 mm 4 mps 749 mmHg 66%
19:00 +28°C° 0 mm 3 mps 749 mmHg 73%
20:00 +27°C° 0 mm 2 mps 749 mmHg 80%
21:00 +27°C° 0 mm 1 mps 749 mmHg 82%
22:00 +26°C° 0 mm 1 mps 749 mmHg 84%
23:00 +26°C° 0 mm 1 mps 749 mmHg 86%

8 July, Wednesday

Time Temperature Precipitation Wind Pressure Humidity
00:00 +25°C° 0 mm 1 mps 749 mmHg 86%
01:00 +25°C° 0 mm 1 mps 749 mmHg 86%
02:00 +25°C° 0 mm 1 mps 749 mmHg 85%
03:00 +25°C° 0 mm 1 mps 749 mmHg 84%
04:00 +24°C° 0 mm 1 mps 749 mmHg 83%
05:00 +24°C° 0 mm 1 mps 749 mmHg 81%
06:00 +26°C° 0 mm 1 mps 750 mmHg 76%
07:00 +28°C° 0 mm 1 mps 750 mmHg 70%
08:00 +29°C° 0 mm 1 mps 750 mmHg 64%
09:00 +31°C° 0 mm 2 mps 750 mmHg 58%
10:00 +33°C° 0 mm 3 mps 750 mmHg 52%
11:00 +34°C° 0 mm 4 mps 750 mmHg 46%
12:00 +34°C° 0 mm 5 mps 750 mmHg 47%
13:00 +34°C° 0 mm 5 mps 750 mmHg 48%
14:00 +34°C° 0 mm 6 mps 750 mmHg 49%
15:00 +33°C° 0 mm 6 mps 750 mmHg 53%
16:00 +33°C° 0 mm 6 mps 750 mmHg 57%
17:00 +32°C° 0 mm 5 mps 750 mmHg 61%
18:00 +30°C° 0 mm 4 mps 750 mmHg 68%
19:00 +28°C° 0 mm 3 mps 750 mmHg 75%
20:00 +27°C° 0 mm 2 mps 750 mmHg 83%
21:00 +27°C° 0 mm 2 mps 750 mmHg 81%
22:00 +26°C° 0 mm 2 mps 750 mmHg 79%
23:00 +26°C° 0 mm 1 mps 750 mmHg 77%

9 July, Thursday

Time Temperature Precipitation Wind Pressure Humidity
00:00 +26°C° 0 mm 1 mps 750 mmHg 80%
01:00 +25°C° 0 mm 1 mps 750 mmHg 83%
02:00 +25°C° 0 mm 1 mps 750 mmHg 86%
03:00 +25°C° 0 mm 1 mps 750 mmHg 84%
04:00 +26°C° 0 mm 1 mps 750 mmHg 82%
05:00 +26°C° 0 mm 1 mps 750 mmHg 80%
06:00 +27°C° 0 mm 1 mps 750 mmHg 74%
07:00 +28°C° 0 mm 2 mps 751 mmHg 69%
08:00 +29°C° 0 mm 2 mps 751 mmHg 63%
09:00 +30°C° 0 mm 3 mps 751 mmHg 58%
10:00 +32°C° 0 mm 4 mps 750 mmHg 53%
11:00 +33°C° 0 mm 5 mps 750 mmHg 49%
12:00 +33°C° 0 mm 5 mps 750 mmHg 48%
13:00 +33°C° 0 mm 5 mps 750 mmHg 48%
14:00 +33°C° 0 mm 5 mps 749 mmHg 48%
15:00 +32°C° 0 mm 5 mps 749 mmHg 51%
16:00 +32°C° 0 mm 5 mps 749 mmHg 55%
17:00 +30°C° 0 mm 5 mps 749 mmHg 58%
18:00 +29°C° 0 mm 4 mps 749 mmHg 66%
19:00 +28°C° 0 mm 3 mps 749 mmHg 73%
20:00 +26°C° 0 mm 2 mps 749 mmHg 80%
21:00 +26°C° 0 mm 1 mps 749 mmHg 81%
22:00 +25°C° 0 mm 1 mps 749 mmHg 81%
23:00 +23°C° 0 mm 0 mps 749 mmHg 82%
Show more